Location: Unspecified
(0.0000°N, 0.0000°E)
Time: 06:40:14
(UTC+00:00)

Vanguard 3 - Pass Details

Date: 15 December 2017
Orbit: 508 x 3264 km, 33.3° (Epoch: 22 June)

Event Time Altitude Azimuth Distance (km) Brightness Sun altitude
Rises 00:45:49 0° 242° (WSW) 6,208 11.7 -63.7°
Reaches altitude 10° 00:52:00 10° 225° (SW) 5,635 11.4 -62.9°
Maximum altitude 01:03:02 18° 186° (S) 5,402 11.4 -61.5°
Drops below altitude 10° 01:15:05 10° 149° (SSE) 6,170 11.9 -59.7°
Sets 01:22:32 0° 132° (SE) 6,983 12.4 -58.5°
